Location: Aalen
(48.8330°N, 10.1000°E)
Time: 20:24:05
(UTC+02:00)

S-56A Canister/Altair - Pass Details

Date: 07 August 2021
Orbit: 632 x 2500 km, 38.9° (Epoch: 19 September)

Event Time Altitude Azimuth Distance (km) Brightness Sun altitude
Rises 17:56:14 0° 269° (W) 5,587 13.2 26.7°
Reaches altitude 10° 17:59:44 10° 265° (W) 4,767 13.5 26.2°
Maximum altitude 18:13:04 52° 195° (SSW) 2,926 11.0 24.0°
Drops below altitude 10° 18:27:05 10° 125° (SE) 4,980 11.3 21.7°
Sets 18:30:50 0° 121° (ESE) 5,843 11.5 21.1°
